Miscellaneous Local Product
Issued by NWS North Platte, NE

Home | Current Version | Previous Version | Text Only | Print | Product List | Glossary On
Versions: 1 2 3 4 5 6 7 8 9 10 11 12 13 14 15 16 17 18 19 20 21 22 23 24 25 26 27 28 29 30 31 32 33 34 35 36 37 38 39 40 41 42 43 44 45 46 47 48 49 50
000
AXUS43 KLBF 230410
MISLBF


WESTERN AND NORTH CENTRAL NEBRASKA HOURLY WEATHER ROUNDUP
NATIONAL WEATHER SERVICE NORTH PLATTE NE
1100 PM CDT TUE JUL 22 2014

***STATIONS NOT REPORTING VARIABLES SUCH AS SKY/WEATHER OR
PRESSURE ARE PROVIDED BY THE NEBRASKA DEPARTMENT OF
ROADS...RAWS...AND APRS NETWORKS...AND ARE NOT UNDER
NATIONAL WEATHER SERVICE QUALITY CONTROL***

...OBSERVATIONS IN AND NEAR THE EASTERN PANHANDLE OF NEBRASKA...

CITY           SKY/WX    TMP DP  RH WIND       PRES   REMARKS
PINE RIDGE     TSTM      68  64  87 NE20G35   30.30R FOG
CHADRON        LGT RAIN  70  65  84 E15G39    30.27F
ALLIANCE       CLEAR     78  55  44 SE16      30.24R
SIDNEY         MOCLDY    76  57  51 SE10      30.28R
WHITECLAY        N/A     70  63  79 E16         N/A
RUSHVILLE        N/A     73  66  78 NE33        N/A
GORDON           N/A     78  64  61 N17         N/A
CRESCENT LAKE    N/A     76  58  52 E12         N/A
LISCO            N/A     82  59  45 E10         N/A
BIG SPRINGS      N/A     75  65  72 CALM        N/A
$$

...OBSERVATIONS IN NORTH CENTRAL NEBRASKA...

CITY           SKY/WX    TMP DP  RH WIND       PRES   REMARKS
VALENTINE      PTCLDY    73  63  70 E7        30.28R
THEDFORD       CLEAR     71  61  70 E7        30.28R
AINSWORTH      CLEAR     67  64  89 E3        30.28R FOG
O`NEILL        CLEAR     69  62  77 NE6       30.24S
ORD            CLEAR     68  65  90 NE3       30.22R
BROKEN BOW     CLEAR     71  64  78 E7        30.24R
BROWNLEE         N/A     73  63  68 E8          N/A
SPRINGVIEW       N/A     70  62  74 CALM        N/A
DUNNING          N/A     71  65  81 E6          N/A
ROSE             N/A     73  70  91 N5          N/A
NEWPORT          N/A     71  64  77 E5          N/A
SARGENT          N/A     72  65  80 CALM        N/A
COMSTOCK         N/A     74  71  89 E3          N/A
CHAMBERS         N/A     69  62  80 CALM        N/A
$$

...OBSERVATIONS IN SOUTHWEST NEBRASKA AND FAR NORTHEAST COLORADO...

CITY           SKY/WX    TMP DP  RH WIND       PRES   REMARKS
WRAY             N/A     79  63  56 E8        30.24R
HOLYOKE        FAIR      77  63  61 E10       30.26R
IMPERIAL       PTCLDY    77  60  55 E9        30.24R
OGALLALA       MOCLDY    74  63  68 E8        30.25R
NORTH PLATTE   PTCLDY    73  65  75 E9        30.22R
MCCOOK         CLEAR     77  64  64 E12       30.20R
LEXINGTON      CLEAR     74  68  81 NE8       30.22R
PAXTON           N/A     76  65  68 E3          N/A
SUTHERLAND       N/A     77  72  82 E5          N/A
BRADY            N/A     72  64  76 CALM        N/A
GOTHENBURG       N/A     75  63  66 E5          N/A
CALLAWAY         N/A     73  67  82 E9          N/A
$$

...NORTH PLATTE AREA...

CITY           SKY/WX    TMP DP  RH WIND       PRES   REMARKS
AIRPORT        PTCLDY    73  65  75 E9        30.22R
$$

...SOME WEATHER OBSERVATIONS FROM AROUND THE REGION...

CITY           SKY/WX    TMP DP  RH WIND       PRES   REMARKS
DENVER         PTCLDY    79  51  37 S9        30.31R
LARAMIE        CLEAR     70  50  49 S14       30.44R
CHEYENNE       CLEAR     75  54  47 S12       30.37R
SCOTTSBLUFF    MOCLDY    77  60  55 E13       30.23R
RAPID CITY     TSTM      68  63  84 VRB5      30.30R
PIERRE         CLOUDY    73  60  63 NE12      30.27R
WINNER         FAIR      70  58  65 NE7       30.27R
SIOUX FALLS    PTCLDY    66  59  78 N6        30.23R
OMAHA          PTCLDY    74  67  78 N7        30.14R
GRAND ISLAND   CLEAR     72  68  87 NE7       30.19R
KANSAS CITY    CLEAR     86  77  74 NE3       30.05S HX  97
WICHITA        CLEAR     81  73  76 S6        30.08R
HAYS           CLEAR     81  63  54 S7        30.12R
LIBERAL        CLEAR     77  64  65 S7        30.20R
GOODLAND       CLEAR     77  68  73 E10       30.24R
$$



USA.gov is the U.S. government's official web portal to all federal, state and local government web resources and services.